Date String (YYYY-MM-DD hh:mm:ss) UTC,Instrument flags,Ambient pressure (hPa),Sample flow (lpm),Bypass flow (lpm),Sample temperature (°C),Ambient temperature (°C),ASC tube jacket temperature (°C),LED temperature (°C),Box temperature (°C),Sample RH (%),Span deviation,Mass concentration (μg/m³),Mass concentration (μg/m³),Mass concentration (μg/m³)
DateTimeUTC,F1_M11,P_M11,Q1_M11,Q2_M11,T1_M11,T2_M11,T3_M11,T4_M11,T5_M11,U1_M11,ZSPAN_M11,X0_M11,X2_M11,X1_M11
2023-05-09 06:00:00,,0828.2,5.00,0.00,29.8,28.3,00.0,38.2,31.5,16.1,0000.0,0011.60,0003.28,0002.09
2023-05-09 06:01:00,,0828.2,5.00,0.00,29.8,28.3,00.0,38.2,31.5,16.4,0000.0,0012.35,0003.32,0002.11
2023-05-09 06:02:00,,0828.1,5.00,0.00,29.8,28.3,00.0,38.2,31.5,16.5,0000.0,0011.76,0003.30,0002.11
2023-05-09 06:03:00,,0828.2,5.00,0.00,29.8,28.3,00.0,38.2,31.5,16.5,0000.0,0010.97,0003.31,0002.14
2023-05-09 06:04:00,,0828.2,4.99,0.00,29.8,28.3,00.0,38.2,31.5,16.6,0000.0,0010.84,0003.38,0002.18
2023-05-09 06:05:00,,0828.2,5.00,0.00,29.8,28.3,00.0,38.2,31.5,16.6,0000.0,0011.43,0003.36,0002.17
2023-05-09 06:06:00,,0828.2,4.99,0.00,29.8,28.3,00.0,38.2,31.5,16.6,0000.0,0010.32,0003.38,0002.18
2023-05-09 06:07:00,,0828.2,5.01,0.00,29.8,28.2,00.0,38.2,31.5,16.6,0000.0,0010.16,0003.42,0002.20
2023-05-09 06:08:00,,0828.2,5.00,0.00,29.8,28.2,00.0,38.2,31.5,16.6,0000.0,0010.77,0003.44,0002.21
2023-05-09 06:09:00,,0828.1,5.00,0.00,29.8,28.2,00.0,38.2,31.5,16.6,0000.0,0011.25,0003.43,0002.20
2023-05-09 06:10:00,,0828.1,4.98,0.00,29.8,28.2,00.0,38.2,31.5,16.6,0000.0,0011.43,0003.45,0002.20
2023-05-09 06:11:00,,0828.1,5.00,0.00,29.8,28.2,00.0,38.2,31.5,16.7,0000.0,0012.39,0003.48,0002.22
2023-05-09 06:12:00,,0828.1,5.00,0.00,29.8,28.2,00.0,38.2,31.5,16.9,0000.0,0011.67,0003.44,0002.23
2023-05-09 06:13:00,,0828.2,5.01,0.00,29.8,28.2,00.0,38.2,31.5,16.8,0000.0,0011.34,0003.46,0002.24
2023-05-09 06:14:00,,0828.2,4.99,0.00,29.8,28.1,00.0,38.2,31.4,16.6,0000.0,0011.63,0003.51,0002.24
2023-05-09 06:15:00,,0828.2,5.00,0.00,29.8,28.0,00.0,38.2,31.4,16.8,0000.0,0012.17,0003.51,0002.24
2023-05-09 06:16:00,,0828.2,5.00,0.00,29.8,27.9,00.0,38.2,31.3,16.6,0000.0,0011.51,0003.55,0002.27
2023-05-09 06:17:00,,0828.2,5.00,0.00,29.8,27.9,00.0,38.2,31.3,16.5,0000.0,0011.33,0003.58,0002.27
2023-05-09 06:18:00,,0828.1,5.00,0.00,29.7,27.8,00.0,38.2,31.3,16.3,0000.0,0012.08,0003.53,0002.27
2023-05-09 06:19:00,,0828.2,5.01,0.00,29.7,27.8,00.0,38.2,31.3,16.0,0000.0,0011.78,0003.52,0002.27
2023-05-09 06:20:00,,0828.2,4.99,0.00,29.7,27.8,00.0,38.2,31.3,15.7,0000.0,0011.80,0003.51,0002.26
2023-05-09 06:21:00,,0828.1,5.00,0.00,29.7,27.7,00.0,38.2,31.2,15.6,0000.0,0011.70,0003.47,0002.24
2023-05-09 06:22:00,,0828.1,5.00,0.00,29.6,27.7,00.0,38.2,31.2,15.7,0000.0,0011.22,0003.43,0002.21
2023-05-09 06:23:00,,0828.2,5.00,0.00,29.6,27.6,00.0,38.2,31.1,15.8,0000.0,0011.79,0003.43,0002.18
2023-05-09 06:24:00,,0828.2,5.01,0.00,29.6,27.6,00.0,38.1,31.1,15.8,0000.0,0011.33,0003.45,0002.17
2023-05-09 06:25:00,,0828.2,5.01,0.00,29.6,27.6,00.0,38.1,31.2,15.8,0000.0,0010.98,0003.40,0002.15
2023-05-09 06:26:00,,0828.2,5.00,0.00,29.6,27.6,00.0,38.1,31.2,15.9,0000.0,0010.35,0003.35,0002.13
2023-05-09 06:27:00,,0828.2,5.00,0.00,29.6,27.6,00.0,38.1,31.2,15.9,0000.0,0010.17,0003.29,0002.10
2023-05-09 06:28:00,,0828.2,5.00,0.00,29.6,27.6,00.0,38.1,31.2,15.9,0000.0,0010.26,0003.28,0002.09
2023-05-09 06:29:00,,0828.2,5.00,0.00,29.6,27.6,00.0,38.1,31.2,16.0,0000.0,0009.86,0003.27,0002.08
2023-05-09 06:30:00,,0828.2,4.99,0.00,29.6,27.7,00.0,38.1,31.2,16.0,0000.0,0009.73,0003.24,0002.06
2023-05-09 06:31:00,,0828.2,5.00,0.00,29.6,27.7,00.0,38.1,31.2,16.1,0000.0,0009.00,0003.22,0002.06
2023-05-09 06:32:00,,0828.2,5.00,0.00,29.6,27.7,00.0,38.1,31.2,16.2,0000.0,0009.19,0003.28,0002.08
2023-05-09 06:33:00,,0828.2,5.00,0.00,29.6,27.7,00.0,38.1,31.2,16.2,0000.0,0009.03,0003.37,0002.13
2023-05-09 06:34:00,,0828.2,5.00,0.00,29.5,27.6,00.0,38.0,31.2,16.3,0000.0,0009.01,0003.41,0002.16
2023-05-09 06:35:00,,0828.1,4.99,0.00,29.5,27.6,00.0,38.0,31.2,16.4,0000.0,0009.26,0003.46,0002.17
2023-05-09 06:36:00,,0828.1,5.00,0.00,29.5,27.7,00.0,38.0,31.1,16.6,0000.0,0009.54,0003.55,0002.18
2023-05-09 06:37:00,,0828.1,4.99,0.00,29.5,27.6,00.0,38.0,31.1,17.0,0000.0,0009.68,0003.61,0002.20
2023-05-09 06:38:00,,0828.0,5.00,0.00,29.5,27.6,00.0,38.0,31.1,17.2,0000.0,0010.15,0003.63,0002.21
2023-05-09 06:39:00,,0828.0,5.00,0.00,29.5,27.6,00.0,38.0,31.1,17.4,0000.0,0010.96,0003.69,0002.24
2023-05-09 06:40:00,,0828.0,5.01,0.00,29.5,27.6,00.0,38.0,31.1,17.6,0000.0,0011.41,0003.76,0002.25
2023-05-09 06:41:00,,0828.1,5.00,0.00,29.5,27.6,00.0,38.0,31.1,17.8,0000.0,0011.85,0003.87,0002.27
2023-05-09 06:42:00,,0828.1,4.99,0.00,29.5,27.7,00.0,38.0,31.1,17.9,0000.0,0012.16,0003.95,0002.29
2023-05-09 06:43:00,,0828.1,4.99,0.00,29.5,27.6,00.0,38.0,31.1,17.9,0000.0,0012.31,0003.96,0002.29
2023-05-09 06:44:00,,0828.1,4.99,0.00,29.5,27.6,00.0,38.0,31.1,17.7,0000.0,0012.62,0003.98,0002.28
2023-05-09 06:45:00,,0828.1,5.00,0.00,29.4,27.5,00.0,38.0,31.0,18.0,0000.0,0012.52,0004.01,0002.28
2023-05-09 06:46:00,,0828.1,5.01,0.00,29.4,27.5,00.0,37.9,31.0,18.0,0000.0,0013.32,0003.98,0002.29
2023-05-09 06:47:00,,0828.1,5.00,0.00,29.4,27.4,00.0,37.9,30.9,18.0,0000.0,0013.36,0003.92,0002.30
2023-05-09 06:48:00,,0828.1,5.00,0.00,29.4,27.4,00.0,37.9,30.9,18.2,0000.0,0013.35,0003.93,0002.31
2023-05-09 06:49:00,,0828.1,4.99,0.00,29.4,27.4,00.0,37.9,30.9,18.4,0000.0,0013.24,0003.96,0002.32
2023-05-09 06:50:00,,0828.1,5.00,0.00,29.4,27.4,00.0,37.9,31.0,18.5,0000.0,0012.39,0003.92,0002.33
2023-05-09 06:51:00,,0828.1,5.00,0.00,29.3,27.4,00.0,37.9,31.0,18.2,0000.0,0011.76,0003.89,0002.34
2023-05-09 06:52:00,,0828.1,5.00,0.00,29.3,27.4,00.0,37.9,30.9,17.6,0000.0,0012.41,0003.87,0002.34
2023-05-09 06:53:00,,0828.1,4.99,0.00,29.3,27.3,00.0,37.9,30.9,17.3,0000.0,0012.80,0003.90,0002.36
2023-05-09 06:54:00,,0828.0,5.00,0.00,29.3,27.3,00.0,37.9,30.9,18.0,0000.0,0013.75,0003.94,0002.39
2023-05-09 06:55:00,,0828.0,4.99,0.00,29.3,27.3,00.0,37.8,30.9,18.4,0000.0,0014.26,0003.95,0002.41
2023-05-09 06:56:00,,0828.0,5.00,0.00,29.3,27.3,00.0,37.8,30.9,18.2,0000.0,0014.31,0003.98,0002.46
2023-05-09 06:57:00,,0828.0,5.01,0.00,29.3,27.4,00.0,37.8,30.9,17.9,0000.0,0013.73,0003.98,0002.47
2023-05-09 06:58:00,,0828.0,5.00,0.00,29.3,27.4,00.0,37.8,30.9,17.6,0000.0,0013.86,0004.03,0002.48
2023-05-09 06:59:00,,0828.0,5.00,0.00,29.3,27.4,00.0,37.8,30.9,17.4,0000.0,0014.06,0004.02,0002.48
